Regional Weather Roundup
Issued by NWS

Home | Current Version | Previous Version | Graphics & Text | Print | Product List | Glossary On
Versions: 1 2 3 4 5 6 7 8 9 10 11 12 13 14 15 16 17 18 19 20 21 22 23 24 25 26 27 28 29 30 31 32 33 34 35 36 37 38 39 40 41 42 43 44 45 46 47 48 49 50
000
ASUS43 KLMK 100102
RWRKY
KENTUCKY REGIONAL WEATHER ROUNDUP
NATIONAL WEATHER SERVICE LOUISVILLE KY
900 PM EDT WED JUL 09 2014

NOTE "FAIR" INDICATES FEW OR NO CLOUDS BELOW 12,000 FEET
WITH NO SIGNIFICANT WEATHER AND/OR OBSTRUCTIONS TO VISIBILITY.

KYZ001>023-026-027-061>063-070>075-100200-
WESTERN AND SOUTH CENTRAL KENTUCKY

CITY           SKY/WX    TMP DP  RH WIND       PRES   REMARKS
PADUCAH        CLEAR     77  66  68 CALM      29.97S
HENDERSON      CLEAR     79  66  65 CALM      29.97R
OWENSBORO      PTCLDY    80  64  58 CALM      29.98R
HOPKINSVILLE   CLEAR     79  59  50 NW5       29.99R
BOWLING GREEN  CLEAR     80  58  46 NW3       29.99R
GLASGOW        NOT AVBL
$$

KYZ024-025-028>034-038-045-046-053-100200-
NORTH CENTRAL KENTUCKY

CITY           SKY/WX    TMP DP  RH WIND       PRES   REMARKS
LOUISVILLE/SDF PTCLDY    80  59  48 W9        29.97R
LOUISVILLE/LOU CLEAR     82  58  43 NW7       29.98R
FORT KNOX      CLEAR     76  65  70 CALM      29.98R
$$

KYZ035>037-039>044-047>052-055>060-089>105-100200-
NORTHEAST KENTUCKY

CITY           SKY/WX    TMP DP  RH WIND       PRES   REMARKS
LEXINGTON      CLEAR     79  56  45 CALM      30.00R
COVINGTON      PTCLDY    75  59  57 W7        29.98R
FRANKFORT      CLEAR     75  61  61 W3        29.98R
$$

KYZ054-064>069-076>088-106>120-100200-
SOUTHEAST KENTUCKY

CITY           SKY/WX    TMP DP  RH WIND       PRES   REMARKS
JACKSON        CLEAR     76  58  53 CALM      30.01R
LONDON         CLEAR     80  60  50 W3        30.02R
SOMERSET       CLEAR     79  57  47 CALM      30.02R
MIDDLESBORO    MOCLDY    76  68  77 CALM      30.02R
MONTICELLO     CLEAR     73  69  87 CALM      30.03R
$$




USA.gov is the U.S. government's official web portal to all federal, state and local government web resources and services.